MOST

Satellite information

Favourite Embed

Satellite Type and Status

PAYLOADIN ORBIT

Key statistics

Satellite MOST at a glance.

Uptime

8041

Days in orbit

Revolutions

≈ 14.2

Per day

Orbit

SSO

Sun Synchronous Orbit

Inclination

98.7

Latest

Satellite identification and parameters

Extended collection of information and parameters for MOST.

Object identification

Identified? True

Debris? False

Object name: MOST

International designator: 2003-031D

Object number (NORAD): 27843

Object ID (CCSDS): 27843

Country: CANADA (CA)

Current information (Y/N): Y

RCS size: MEDIUM

Orbital parameters

Period: 101.322 minutes

Inclination: 98.705 deg

SMA: 7199.385 km

Apoapsis: 828.462 km

Periapsis: 814.038 km

RAAN: 193.1465 deg

Eccentricy: 0.0010018

Argument of periapsis: 169.5276 deg

Mean anomaly: 190.6112 deg

Mean motion: 14.21214615 rev/day

Mean motion (dot): 0.00000054 rev/day2

B* drag term: 0.000044955 1/REarth

Two-line elements (TLE)

Creation date: July 4, 2025, 6:39 p.m.

Reference frame: TEME

Reference center: EARTH

Epoch: July 4, 2025, 1:54 p.m. UTC

TLE line 0: 0 MOST

TLE line 1: 1 27843U 03031D 25185.57973203 .00000054 00000-0 44955-4 0 9998

TLE line 2: 2 27843 98.7050 193.1465 0010018 169.5276 190.6112 14.21214615141339

Live tracking on map

Real-time ground track for satellite MOST.

In-orbit conjunctions

There are no conjunctions computed for MOST, at the moment. Check back to stay up to date, as we update our databases every day.

Go to all conjunctions

Associated space launch

MIMOSA (Micro Measurements Of Satellite Acceleration) is a microsatellite to measure atmospheric drag.

MOST was lifted into orbit during the mission ‘Rokot / Briz-KM | Mimosa’, on board a Rokot/Briz-KM space rocket.

The launch took place on June 30, 2003, 2:15 p.m. from 133/3 (133L).

For more information about the launch, click the button.

Launch to space Rokot / Briz-KM | Mimosa
Rokot / Briz-KM | Mimosa

Agency: N/A

Status: Launch Successful

Launch date: June 30, 2003, 2:15 p.m. UTC

Rocket: Rokot/Briz-KM

Launch pad: 133/3 (133L)

Location: Plesetsk Cosmodrome, Russian Federation

...

Latest news about this satellite

There are no fresh news available about this satellite. Check back as we update our databases every day.


Newsletter sign-up

Weekly statistics, charts and insights to help you stay on top of the space industry.